TimeEST,TemperatureF,Dew PointF,Humidity,Sea Level PressureIn,VisibilityMPH,Wind Direction,Wind SpeedMPH,Gust SpeedMPH,PrecipitationIn,Events,Conditions,WindDirDegrees,DateUTC
12:53 AM,44.1,30.9,60,30.39,10.0,Variable,5.8,-,N/A,,Clear,0,2013-01-28 05:53:00
1:53 AM,44.1,30.9,60,30.41,10.0,Variable,3.5,-,N/A,,Scattered Clouds,0,2013-01-28 06:53:00
2:53 AM,44.1,30.9,60,30.39,10.0,Variable,3.5,-,N/A,,Overcast,0,2013-01-28 07:53:00
3:35 AM,44.6,30.2,57,30.38,10.0,ESE,9.2,-,N/A,,Overcast,120,2013-01-28 08:35:00
3:53 AM,45.0,30.0,56,30.37,10.0,East,4.6,-,N/A,,Overcast,90,2013-01-28 08:53:00
4:53 AM,45.0,30.9,58,30.37,10.0,ESE,6.9,-,N/A,,Overcast,110,2013-01-28 09:53:00
5:53 AM,45.0,32.0,60,30.38,10.0,East,6.9,-,N/A,,Overcast,100,2013-01-28 10:53:00
7:53 AM,45.0,36.0,71,30.39,10.0,East,8.1,-,N/A,,Overcast,90,2013-01-28 12:53:00
8:53 AM,46.0,36.0,68,30.40,8.0,ESE,6.9,-,N/A,,Overcast,110,2013-01-28 13:53:00
9:12 AM,46.4,37.4,71,30.41,8.0,East,6.9,-,N/A,,Overcast,100,2013-01-28 14:12:00
9:53 AM,46.9,37.9,71,30.39,8.0,ESE,5.8,-,N/A,,Overcast,110,2013-01-28 14:53:00
10:53 AM,48.9,39.9,71,30.38,8.0,SE,9.2,-,N/A,,Overcast,130,2013-01-28 15:53:00
11:13 AM,48.2,41.0,76,30.40,8.0,SE,5.8,-,N/A,,Overcast,130,2013-01-28 16:13:00
11:53 AM,50.0,42.1,74,30.38,8.0,ESE,8.1,-,N/A,,Overcast,120,2013-01-28 16:53:00
12:53 PM,52.0,43.0,71,30.34,8.0,SE,6.9,-,N/A,,Overcast,130,2013-01-28 17:53:00
1:53 PM,54.0,45.0,72,30.30,8.0,ESE,3.5,-,N/A,,Overcast,120,2013-01-28 18:53:00
2:53 PM,55.0,46.0,72,30.29,8.0,SE,4.6,-,N/A,,Overcast,130,2013-01-28 19:53:00
3:53 PM,55.9,46.9,72,30.28,8.0,ESE,3.5,-,N/A,,Overcast,120,2013-01-28 20:53:00
4:53 PM,55.9,46.9,72,30.27,8.0,East,4.6,-,N/A,,Overcast,80,2013-01-28 21:53:00
5:45 PM,53.6,46.4,77,30.28,8.0,ESE,4.6,-,N/A,,Scattered Clouds,110,2013-01-28 22:45:00
5:53 PM,54.0,46.0,75,30.27,8.0,ESE,4.6,-,N/A,,Partly Cloudy,120,2013-01-28 22:53:00
6:18 PM,53.6,46.4,77,30.29,8.0,East,3.5,-,N/A,,Mostly Cloudy,80,2013-01-28 23:18:00
6:53 PM,48.9,44.1,83,30.29,7.0,NNE,3.5,-,N/A,,Scattered Clouds,30,2013-01-28 23:53:00
7:53 PM,48.9,44.1,83,30.29,7.0,East,4.6,-,N/A,,Clear,80,2013-01-29 00:53:00
8:53 PM,48.0,44.1,86,30.28,6.0,ENE,3.5,-,N/A,,Clear,70,2013-01-29 01:53:00
9:53 PM,46.9,43.0,86,30.28,6.0,East,4.6,-,N/A,,Clear,90,2013-01-29 02:53:00
10:53 PM,46.0,43.0,89,30.27,6.0,East,3.5,-,N/A,,Clear,80,2013-01-29 03:53:00
11:53 PM,46.0,42.1,86,30.27,5.0,East,3.5,-,N/A,,Clear,80,2013-01-29 04:53:00